Temp_Advection
nan nan nan nan nan nan nan nan nan nan nan nan nan nan nan nan nan nan nan nan nan nan nan nan nan nan nan nan nan nan nan nan nan nan nan nan nan nan
nan 0 0 0 0 0 0 -0 0 0 -0 -0 -0 -0 -0 -0 -0 0 0 0 0 -1 -1 -1 -0 -0 -0 -0 -0 -0 0 -0 -0 0 0 -0 0 nan
nan 0 0 0 0 0 0 0 0 0 0 -0 -0 -0 -0 -0 0 -0 -0 -0 0 -0 -1 -0 -1 -0 -0 -0 -0 -0 -0 -0 -0 -0 -0 -0 -0 nan
nan -0 0 0 0 0 0 0 0 1 0 -1 -0 0 -0 -0 0 0 -0 -0 0 -0 -0 -0 -1 -0 0 -0 -0 -0 -0 -0 -0 -0 -0 -0 -0 nan
nan -0 -0 -0 -0 0 0 0 0 0 0 -0 -0 -0 -0 -0 -0 0 1 0 0 -0 -1 -0 -0 -1 -0 0 -0 -0 -0 -0 -0 -0 -0 0 0 nan
nan -0 -0 0 0 0 0 0 0 0 0 0 -0 -0 0 -0 -0 -1 0 1 0 1 -1 -1 -0 -0 -1 -0 0 0 -0 -0 -0 0 0 0 0 nan
nan -0 -0 -0 0 0 -0 0 1 0 0 0 -0 -0 0 0 0 -1 -1 -0 0 0 0 -0 -0 -0 -0 -0 -0 -0 0 -0 -0 -0 0 0 0 nan
nan -0 -0 -0 0 0 -0 0 0 0 -0 -0 -0 -0 0 1 0 0 -0 -1 -1 -0 0 0 -0 -0 -0 -0 -0 -0 -0 0 0 0 0 0 0 nan
nan -0 -0 0 0 -0 0 0 0 -0 -0 -0 -1 -0 0 0 0 0 0 -0 -0 -0 -1 -0 0 0 0 -0 -0 -0 -0 0 0 0 0 0 0 nan
nan -0 -0 -0 0 0 -0 -0 0 0 0 0 -0 -0 -0 0 0 0 0 0 -0 0 -0 -1 -0 0 0 0 -0 -0 -0 0 0 0 0 0 0 nan
nan -0 -0 -0 0 0 0 -0 -0 0 0 -0 -0 0 -0 -0 1 0 -0 0 -1 -0 0 -0 -1 -0 -0 0 0 0 0 0 0 0 0 0 0 nan
nan -0 -0 -0 0 0 0 -0 -1 -0 0 -0 -0 0 0 0 0 0 1 1 -0 -2 -1 0 -0 0 -0 -0 0 0 0 0 0 0 0 0 0 nan
nan -0 -0 -0 -0 0 0 -0 0 0 0 -0 -1 -0 0 0 0 0 0 0 0 -0 0 0 -0 0 -0 -0 -0 0 0 0 0 0 0 0 0 nan
nan -1 -0 -0 -0 -0 0 0 0 0 -0 -0 -0 -0 0 0 1 1 0 -0 -0 0 1 1 0 -0 -0 -0 -1 -0 -0 0 0 0 0 0 0 nan
nan 0 -0 -1 -1 -0 -0 -0 -0 0 0 0 -0 0 0 1 0 0 0 0 -0 -1 -0 0 1 1 -0 -0 -0 -0 -0 -0 -0 0 0 0 0 nan
nan 0 1 0 -0 -1 -0 0 -0 -0 -0 -0 -0 0 1 1 0 0 0 0 0 0 -0 -0 0 0 -0 0 -0 -0 0 -0 -1 0 0 0 0 nan
nan -1 -2 -1 -1 -0 -0 0 0 -0 -0 -0 -0 1 1 -0 0 0 -0 0 0 0 0 -0 -0 -0 0 0 -0 -1 -0 -1 0 1 0 -0 0 nan
nan 0 -1 -2 -2 -2 -2 -1 -0 -0 -0 -0 -0 -0 1 0 -0 0 0 0 0 0 -0 -0 0 0 -0 -1 -1 -0 -0 -0 0 1 1 -0 -0 nan
nan 0 0 -1 -1 -2 -1 -1 -1 -1 -0 -0 -0 0 0 0 0 -0 -0 0 0 0 -0 -0 0 0 0 -1 -1 -0 -0 0 1 1 0 -0 -0 nan
nan -1 -0 -0 -0 -1 -1 -1 -1 -1 -1 -0 -0 0 1 0 0 -0 -0 -0 0 0 0 -0 -0 -0 -1 -1 -0 0 0 0 0 -0 0 0 1 nan
nan 0 0 -0 -0 -0 -0 -0 -1 -1 -1 -1 -1 -0 0 0 0 1 0 0 -0 0 0 -1 -0 0 1 1 -0 -1 -0 1 0 0 0 1 1 nan
nan -0 -0 -0 -0 -0 -0 -1 -1 -1 -1 -1 -0 -0 0 0 0 0 0 0 0 0 0 -0 0 0 0 0 -0 -0 0 1 0 0 0 0 0 nan
nan nan nan nan nan nan nan nan nan nan nan nan nan nan nan nan nan nan nan nan nan nan nan nan nan nan nan nan nan nan nan nan nan nan nan nan nan nan
Wind_Speed
13 12 12 11 10 11 11 11 12 10 12 7 13 14 20 22 18 17 20 23 22 18 17 14 10 11 11 12 11 11 11 10 7 6 6 4 4 6
14 14 14 14 12 11 11 13 13 15 16 15 19 23 23 22 17 19 21 21 20 19 15 17 13 7 8 7 5 4 3 2 2 2 2 1 2 2
15 16 16 15 15 13 12 13 14 14 20 22 20 18 17 18 15 12 9 14 15 18 18 11 13 13 7 6 5 4 5 4 3 4 4 3 2 3
17 18 18 17 18 16 15 14 14 13 16 21 17 14 17 16 17 12 11 11 11 15 11 15 15 11 11 8 5 4 4 6 5 3 4 4 2 4
20 19 19 18 19 18 18 18 17 16 16 19 22 18 18 17 18 14 10 13 12 12 12 10 12 15 11 7 6 5 5 6 6 6 4 3 4 6
21 21 20 20 19 19 20 21 21 21 20 21 22 22 21 19 19 19 16 13 15 15 15 11 9 11 12 7 4 4 5 5 4 5 3 4 6 7
20 21 21 20 20 20 21 20 21 23 24 25 26 25 23 21 20 20 20 16 11 16 15 15 8 9 11 10 8 4 3 2 3 2 1 2 5 5
22 22 22 23 22 22 21 21 21 22 23 25 26 26 24 22 21 20 20 19 18 13 12 10 11 12 12 11 10 8 4 5 4 4 4 4 4 5
21 22 23 22 22 22 21 22 22 22 22 22 24 23 23 19 19 22 21 21 20 17 19 19 14 13 14 13 12 10 10 6 8 6 6 7 7 7
21 22 23 23 21 21 22 23 24 24 22 22 24 24 23 20 20 20 21 23 23 20 19 22 16 15 13 13 13 13 12 10 10 10 9 10 10 10
19 19 20 21 20 19 21 24 25 26 23 24 25 26 25 22 21 22 23 23 24 22 16 18 19 15 15 14 15 15 15 14 13 12 11 11 11 10
17 16 15 16 17 17 19 21 25 25 23 23 24 26 26 23 21 22 23 24 24 25 18 18 19 15 9 12 14 17 16 13 13 13 13 12 12 11
19 18 15 14 15 16 17 19 21 22 23 23 23 23 24 24 23 22 22 23 24 27 21 14 15 12 12 14 13 12 11 12 12 13 13 13 14 13
18 18 18 16 15 16 18 19 21 22 24 24 24 24 23 23 24 24 24 24 22 22 21 23 26 24 22 22 21 19 17 17 17 16 16 17 17 17
22 23 23 22 20 19 18 19 20 20 21 22 23 22 20 19 20 20 21 22 23 24 23 24 27 27 26 25 24 23 21 20 19 18 18 19 19 19
26 29 31 32 30 29 25 21 20 20 21 21 22 21 19 18 19 20 19 19 22 25 24 23 25 27 27 27 26 28 26 21 17 15 17 21 22 22
29 30 31 31 31 29 29 26 22 21 21 21 21 21 19 18 19 20 20 20 22 25 25 22 22 23 25 27 30 30 28 27 24 23 25 24 23 22
31 29 25 24 27 28 29 27 24 21 20 19 20 21 20 19 20 22 22 24 25 25 25 23 21 22 24 29 30 30 27 27 25 26 27 28 26 24
24 23 23 25 26 27 27 27 27 24 20 20 21 20 19 22 22 23 23 25 27 27 28 25 25 25 28 33 31 26 25 23 24 27 28 29 28 22
22 22 23 24 25 27 27 29 30 28 25 23 23 24 21 20 20 19 22 24 25 25 25 26 27 27 29 29 31 29 25 22 23 24 25 26 25 23
28 28 30 30 29 29 30 30 30 29 29 26 25 26 26 24 24 24 24 25 25 25 26 26 24 20 22 24 29 30 24 23 23 23 23 25 26 28
30 31 32 31 32 32 31 29 30 29 29 28 29 28 27 25 24 27 27 28 26 27 27 25 22 21 23 26 27 25 21 20 20 21 24 25 25 26
30 30 31 31 32 31 32 30 29 30 30 31 28 30 28 26 25 26 26 24 23 24 24 24 22 22 23 26 24 24 23 21 20 20 24 24 25 27
Wind_Direction
293 291 299 307 304 272 269 270 277 293 298 237 281 266 291 298 293 303 311 317 331 341 349 356 346 346 355 20 38 46 74 89 109 137 157 189 167 139
291 288 291 294 299 301 279 267 263 266 271 273 278 287 297 307 296 282 286 302 323 333 347 346 354 337 343 355 10 23 52 48 74 84 69 20 125 168
289 287 286 288 290 291 297 278 264 261 269 280 288 308 323 329 325 325 316 298 315 322 328 341 343 355 337 334 339 331 319 302 309 302 297 289 278 272
290 286 286 286 285 286 289 291 286 289 279 288 305 315 324 328 328 324 321 308 311 311 320 330 334 341 344 330 316 312 303 307 305 281 279 282 284 228
289 285 286 285 284 287 286 285 286 287 288 291 300 308 313 316 322 324 300 304 296 298 300 304 315 318 330 336 340 319 302 293 292 291 274 246 232 228
287 285 286 284 284 286 283 282 282 280 281 283 288 296 299 306 307 317 315 287 281 288 292 299 304 306 308 322 333 334 321 311 298 296 260 231 218 217
285 283 283 283 284 283 283 282 278 275 277 278 281 286 290 294 296 302 304 312 308 295 287 290 297 299 300 301 308 312 300 291 302 301 248 189 201 213
289 287 286 284 282 281 281 282 280 279 278 278 280 282 287 289 288 290 292 298 305 306 297 283 278 290 295 297 296 297 268 262 220 221 249 240 232 218
289 289 288 285 284 283 281 278 277 277 278 282 281 282 285 290 286 282 281 285 289 292 287 289 276 280 281 281 280 277 280 261 254 245 235 240 244 237
292 291 289 287 284 283 281 278 279 279 278 279 278 281 281 282 279 280 275 274 278 282 284 281 282 282 274 268 271 272 272 263 250 248 241 236 236 237
303 296 292 288 288 283 279 279 279 278 280 279 277 278 278 275 272 272 270 271 276 278 276 274 277 277 274 267 262 264 266 266 262 253 248 248 234 230
320 317 307 297 292 288 284 283 283 286 286 281 274 271 273 271 265 266 273 266 270 282 284 261 265 264 275 267 257 256 258 258 258 259 257 245 236 238
335 333 327 316 306 298 291 288 289 291 288 286 283 277 273 270 267 268 268 271 267 267 258 255 256 256 250 261 265 268 261 252 256 259 260 253 245 249
328 327 327 326 322 316 310 303 295 290 288 289 285 281 277 276 270 265 268 270 264 264 264 249 254 257 258 263 268 265 262 260 259 257 258 256 256 262
312 310 310 310 311 310 309 309 305 299 292 288 287 288 288 283 282 270 261 256 260 261 260 252 253 256 256 258 263 266 266 262 262 259 255 252 254 255
292 290 293 298 300 302 303 304 301 302 297 293 292 290 283 277 272 273 268 259 261 264 264 259 253 253 255 256 258 261 263 259 261 258 255 251 250 251
303 301 300 300 298 297 298 299 298 292 290 292 293 291 287 278 266 268 271 267 264 265 268 267 264 261 258 254 254 255 258 260 261 260 257 257 254 253
303 304 302 302 301 300 300 297 296 291 287 286 281 285 288 280 273 268 265 265 267 269 268 269 272 265 260 256 254 259 260 261 260 258 256 256 255 251
305 302 301 299 299 301 302 302 297 291 287 277 272 273 277 282 274 269 264 263 264 266 269 270 264 263 259 259 267 263 263 259 260 258 254 253 255 254
308 305 302 304 303 301 302 299 300 300 291 278 267 262 271 278 280 281 275 271 269 269 268 266 263 262 261 265 268 270 269 266 260 255 255 255 253 249
310 302 302 302 301 301 301 300 296 294 294 288 272 263 260 266 271 279 279 276 272 269 267 266 270 274 274 270 264 267 271 268 263 257 253 248 245 253
308 306 304 301 302 298 295 294 292 290 288 284 280 270 260 261 268 274 276 276 266 261 266 271 270 268 264 262 266 271 272 269 266 257 249 246 250 248
306 303 300 299 301 300 299 294 292 292 289 288 286 280 267 257 267 272 278 278 264 265 263 263 262 260 260 264 268 269 269 268 264 254 253 248 247 248
Height
1503 1502 1502 1502 1501 1500 1500 1500 1500 1499 1498 1495 1494 1492 1489 1486 1484 1481 1478 1474 1471 1467 1464 1462 1459 1456 1453 1452 1451 1450 1447 1448 1448 1447 1449 1447 1449 1450
1500 1499 1499 1499 1498 1497 1496 1497 1496 1496 1494 1492 1490 1488 1485 1482 1479 1477 1475 1473 1469 1465 1464 1461 1459 1456 1454 1452 1452 1452 1451 1450 1451 1449 1448 1451 1452 1452
1497 1496 1496 1495 1494 1494 1493 1492 1491 1492 1489 1487 1485 1484 1481 1478 1475 1473 1472 1471 1468 1464 1461 1461 1458 1455 1454 1452 1451 1450 1450 1451 1449 1449 1449 1452 1452 1452
1493 1492 1492 1491 1490 1489 1489 1488 1487 1487 1485 1482 1482 1481 1479 1476 1473 1471 1470 1469 1467 1464 1460 1457 1456 1456 1453 1451 1451 1451 1449 1448 1449 1449 1450 1450 1449 1453
1488 1488 1487 1487 1486 1485 1484 1484 1483 1482 1481 1479 1477 1477 1475 1474 1471 1469 1467 1466 1464 1462 1459 1457 1455 1453 1452 1450 1449 1449 1449 1449 1447 1448 1449 1448 1450 1453
1483 1482 1482 1481 1481 1481 1480 1479 1479 1478 1476 1475 1473 1472 1472 1470 1468 1466 1464 1462 1460 1459 1457 1455 1454 1453 1450 1450 1449 1449 1448 1447 1448 1447 1447 1449 1451 1452
1477 1476 1476 1476 1476 1475 1474 1474 1473 1472 1471 1470 1468 1467 1466 1466 1464 1463 1460 1459 1458 1455 1454 1452 1452 1451 1449 1448 1447 1448 1448 1447 1446 1447 1448 1448 1449 1449
1470 1470 1469 1469 1469 1469 1468 1467 1467 1466 1465 1464 1462 1461 1460 1460 1459 1458 1457 1455 1454 1452 1450 1450 1449 1448 1447 1447 1446 1445 1446 1446 1447 1447 1446 1447 1447 1448
1465 1463 1462 1462 1462 1461 1461 1460 1460 1459 1459 1458 1456 1456 1454 1455 1454 1452 1452 1451 1449 1450 1448 1446 1445 1445 1444 1443 1443 1443 1443 1443 1443 1444 1445 1445 1445 1446
1459 1457 1455 1454 1454 1454 1453 1451 1451 1451 1452 1452 1450 1449 1449 1449 1448 1447 1446 1445 1444 1444 1443 1441 1441 1440 1440 1440 1439 1439 1439 1440 1441 1441 1443 1444 1444 1444
1453 1451 1449 1448 1447 1447 1445 1443 1442 1442 1444 1443 1442 1441 1441 1441 1441 1440 1439 1439 1438 1438 1439 1437 1436 1436 1436 1436 1436 1435 1436 1436 1437 1438 1439 1440 1441 1443
1449 1447 1445 1442 1441 1440 1439 1437 1435 1435 1435 1435 1435 1433 1433 1433 1434 1434 1433 1433 1434 1432 1432 1432 1431 1433 1432 1430 1431 1431 1432 1433 1433 1433 1435 1436 1438 1439
1445 1443 1441 1438 1437 1435 1433 1431 1429 1428 1427 1426 1426 1426 1425 1425 1425 1426 1427 1427 1427 1426 1428 1428 1427 1428 1429 1428 1428 1429 1429 1429 1430 1430 1430 1431 1432 1434
1441 1439 1437 1435 1433 1431 1429 1426 1424 1422 1420 1419 1418 1417 1418 1418 1419 1419 1420 1420 1420 1420 1421 1421 1421 1422 1424 1424 1424 1424 1425 1425 1426 1427 1427 1428 1428 1429
1438 1434 1431 1429 1428 1426 1424 1422 1419 1417 1415 1413 1411 1410 1411 1411 1410 1410 1411 1411 1412 1412 1413 1413 1414 1416 1417 1417 1417 1418 1419 1420 1421 1421 1422 1423 1424 1424
1431 1428 1427 1424 1421 1419 1417 1416 1414 1412 1409 1407 1406 1404 1403 1403 1403 1403 1403 1404 1405 1404 1405 1406 1408 1408 1409 1410 1411 1410 1412 1414 1414 1416 1417 1417 1418 1418
1423 1420 1417 1416 1412 1410 1409 1408 1407 1405 1403 1402 1400 1398 1397 1396 1397 1397 1397 1397 1397 1397 1398 1399 1400 1401 1402 1402 1401 1402 1404 1405 1407 1408 1409 1410 1411 1413
1416 1412 1410 1408 1406 1402 1399 1397 1397 1397 1395 1394 1393 1392 1390 1390 1390 1390 1390 1390 1390 1390 1390 1392 1393 1394 1393 1392 1393 1394 1396 1397 1399 1400 1401 1401 1403 1405
1409 1406 1404 1402 1399 1396 1392 1390 1388 1388 1387 1386 1385 1385 1384 1382 1383 1382 1382 1382 1381 1382 1382 1385 1385 1385 1385 1382 1386 1387 1387 1389 1390 1390 1392 1393 1395 1398
1404 1401 1398 1396 1393 1389 1386 1383 1381 1379 1378 1377 1376 1376 1376 1376 1376 1375 1375 1374 1374 1374 1374 1375 1375 1376 1376 1377 1376 1377 1379 1380 1381 1383 1384 1385 1388 1390
1398 1394 1392 1389 1386 1383 1379 1376 1374 1372 1370 1368 1366 1367 1367 1368 1368 1368 1367 1367 1367 1366 1365 1366 1367 1369 1369 1369 1367 1367 1371 1373 1374 1375 1377 1378 1380 1381
1390 1386 1383 1380 1377 1374 1371 1368 1365 1363 1361 1359 1358 1358 1358 1358 1358 1359 1358 1357 1357 1358 1357 1358 1360 1360 1360 1360 1360 1361 1363 1365 1365 1367 1369 1371 1373 1372
1381 1378 1374 1371 1368 1364 1362 1359 1356 1354 1352 1351 1349 1349 1349 1349 1349 1349 1349 1348 1349 1349 1350 1350 1351 1352 1352 1352 1353 1354 1355 1357 1358 1359 1360 1364 1365 1366